Date,TemperatureHighF,TemperatureAvgF,TemperatureLowF,DewpointHighF,DewpointAvgF,DewpointLowF,HumidityHigh,HumidityAvg,HumidityLow,PressureMaxIn,PressureMinIn,WindSpeedMaxMPH,WindSpeedAvgMPH,GustSpeedMaxMPH,PrecipitationSumIn
2012-1-12,42.8,40.3,41.0,42.3,37.7,-99.9,98,96,98,29.55,29.42,4,-20,0,0.02
2012-1-13,44.6,38.0,28.4,44.1,33.5,-99.9,98,89,65,29.92,29.29,17,-15,0,0.17
2012-1-14,32.0,28.1,26.6,21.6,15.5,-99.9,81,63,54,30.15,29.93,7,-18,0,0.00
2012-1-15,15.8,15.8,15.8,3.3,3.1,2.9,57,56,56,30.58,30.57,4,3,0,0.00
2012-1-16,32.0,14.2,12.2,15.9,5.0,2.0,75,67,51,30.59,30.26,4,1,0,0.00
2012-1-17,50.0,42.8,33.8,48.3,41.9,33.3,98,97,94,29.93,29.48,7,2,0,0.31
2012-1-18,51.8,37.2,23.0,49.0,23.0,10.5,91,57,40,30.11,29.50,11,5,0,0.00
2012-1-19,32.0,30.6,21.2,25.6,21.8,12.7,77,70,58,30.19,29.90,4,2,0,0.00
2012-1-20,30.2,28.4,24.8,13.0,8.8,4.9,52,43,34,30.22,30.15,5,1,0,0.00
2012-1-21,28.4,24.1,21.2,21.2,18.5,11.7,92,81,49,30.22,29.89,6,2,0,0.00
2012-1-22,32.0,32.0,32.0,29.4,29.4,29.4,90,90,90,30.32,30.30,2,1,0,0.00
2012-1-23,50.0,41.8,32.0,49.5,41.2,29.4,98,98,90,30.30,29.76,8,2,0,0.75
2012-1-24,50.0,43.7,37.4,47.7,38.8,32.3,98,83,66,30.03,29.77,7,3,0,0.01
2012-1-25,42.8,35.7,33.8,29.9,24.3,-99.9,78,69,59,30.14,30.08,4,-28,0,0.00
2012-1-26,35.6,33.4,32.0,33.5,31.1,27.4,98,91,77,30.12,29.96,3,1,0,0.02
2012-1-27,57.2,48.3,41.0,56.6,43.8,33.0,98,85,73,29.76,29.23,11,3,0,0.65
2012-1-28,44.6,41.2,35.6,33.4,28.3,20.0,74,60,46,29.94,29.76,9,3,0,0.00
2012-1-29,42.8,35.7,32.0,22.3,16.8,12.6,54,46,35,30.10,29.90,7,3,0,0.00
2012-1-30,37.4,33.8,32.0,29.4,19.6,12.1,78,57,39,30.19,29.91,7,3,0,0.00
2012-1-31,59.0,45.6,32.0,33.6,27.7,16.8,68,50,37,30.13,29.91,6,2,0,0.00
2012-2-1,60.8,52.4,46.4,45.9,39.3,31.6,83,61,53,29.90,29.76,9,3,0,0.04
2012-2-2,44.6,40.3,35.6,34.0,30.1,23.5,75,67,61,30.08,29.89,9,4,0,0.00
2012-2-10,42.8,42.8,42.8,25.5,25.5,25.5,50,50,50,29.85,29.85,0,0,0,0.00
2012-2-11,35.6,34.2,32.0,32.0,30.0,28.1,95,85,74,29.73,29.41,4,2,0,0.00
2012-2-13,32.0,32.0,32.0,18.5,18.5,18.5,57,57,57,29.90,29.90,5,5,0,0.00
2012-2-15,44.6,40.9,32.0,40.5,36.6,29.4,98,85,73,30.14,30.04,4,2,0,0.00
2012-2-16,37.4,34.9,32.0,36.1,33.0,29.9,95,93,89,30.16,30.05,2,0,0,0.01
2012-2-18,48.2,41.9,33.8,36.5,28.1,21.3,94,62,38,29.89,29.71,8,2,0,0.01
2012-2-19,42.8,35.3,32.0,28.6,25.5,23.1,84,68,47,29.95,29.84,5,2,0,0.00
2012-2-21,42.8,42.8,42.8,31.5,31.5,31.5,64,64,64,29.81,29.81,5,5,0,0.00
2012-2-22,53.6,50.9,48.2,38.1,32.1,28.6,68,49,38,29.45,29.41,4,1,0,0.00
2012-2-23,57.2,49.9,44.6,39.9,28.4,23.7,68,44,29,29.62,29.33,8,2,0,0.00
2012-2-24,44.6,39.6,35.6,42.3,37.1,27.6,98,92,51,29.57,29.20,9,2,0,0.43
2012-2-25,42.8,38.3,35.6,29.0,25.3,21.9,66,59,48,29.50,29.30,10,6,0,0.00
2012-2-29,41.0,40.2,37.4,40.5,39.5,36.9,98,97,88,29.99,29.59,5,2,0,0.27
2012-3-1,44.6,39.0,35.6,42.4,38.1,34.6,98,96,91,29.80,29.50,4,2,0,0.04
2012-3-2,41.0,35.9,33.8,37.4,33.5,30.9,98,91,87,29.98,29.80,4,1,0,0.00
2012-3-4,42.8,37.7,35.6,26.1,23.4,21.5,60,56,48,29.56,29.49,8,2,0,0.00
2012-3-6,39.2,36.5,35.6,17.4,15.9,14.5,47,43,36,30.43,30.40,2,1,0,0.00
2012-3-8,69.8,64.9,60.8,52.4,50.3,48.5,66,59,53,29.92,29.68,8,4,0,0.00
2012-3-9,60.8,44.5,35.6,51.7,31.3,19.7,93,62,35,30.11,29.68,15,5,0,0.03
2012-3-10,41.0,36.9,30.2,19.4,15.2,11.4,55,41,33,30.34,30.13,10,5,0,0.00
2012-3-14,69.8,63.9,59.0,23.8,22.2,20.0,25,20,16,30.00,29.95,3,1,0,0.00
2012-3-15,46.4,45.1,44.6,43.0,41.8,41.0,91,88,86,30.19,30.15,4,2,0,0.00
2012-3-17,53.6,47.9,44.6,46.6,44.4,42.4,98,88,74,30.22,30.17,3,1,0,0.00
2012-3-18,66.2,55.0,44.6,54.8,50.2,44.1,98,85,66,30.24,30.05,5,2,0,0.00
2012-3-19,77.0,62.9,50.0,60.5,53.8,46.2,98,75,44,30.09,29.98,6,2,0,0.00
2012-3-20,73.4,62.5,55.4,64.0,58.2,54.0,98,87,62,30.19,30.07,4,1,0,0.00
2012-3-21,68.0,60.9,53.6,61.7,58.2,53.0,98,91,75,30.21,30.13,4,1,0,0.00
2012-3-22,75.2,62.5,53.6,64.0,58.2,53.0,98,88,64,30.15,29.92,5,1,0,0.01
2012-3-23,78.8,62.4,53.6,60.5,55.0,40.5,98,79,52,29.96,29.88,6,1,0,0.00
2012-3-24,62.6,54.7,46.4,45.9,35.9,24.8,98,51,24,29.94,29.81,6,2,0,0.06
2012-3-25,55.4,46.9,42.8,46.9,43.9,41.3,98,90,70,29.82,29.58,5,2,0,0.01
2012-3-26,51.8,48.8,46.4,47.8,37.4,12.5,93,69,25,29.73,29.56,13,5,0,0.00
2012-3-28,68.0,58.9,53.6,51.4,43.1,-99.9,76,59,47,29.63,29.41,9,3,0,0.01
2012-3-29,59.0,52.0,44.6,51.4,39.5,29.4,76,63,50,29.83,29.45,12,6,0,0.00
2012-3-31,41.0,40.9,39.2,40.5,40.4,38.7,98,98,98,29.77,29.70,4,1,0,0.00
2012-4-1,42.8,40.8,39.2,41.5,40.3,38.7,98,98,95,29.76,29.73,2,0,0,0.00
2012-4-3,57.2,55.6,55.4,13.8,10.9,10.0,19,17,16,29.65,29.63,2,0,0,0.00
2012-4-4,68.0,62.6,46.4,31.8,23.6,9.9,46,23,17,29.62,29.37,14,6,0,0.00
2012-4-5,46.4,46.4,46.4,25.7,25.7,25.7,44,44,44,29.59,29.59,9,9,0,0.00
2012-4-6,55.4,55.4,55.4,16.1,16.1,16.1,21,21,21,29.75,29.75,8,8,0,0.00
2012-4-7,53.6,53.6,53.6,12.4,12.4,12.4,19,19,19,29.91,29.91,6,6,0,0.00
2012-4-13,64.4,63.5,62.6,27.2,26.5,25.8,26,24,23,30.00,29.98,4,3,0,0.00
2012-4-20,57.2,57.2,57.2,54.3,54.3,54.3,90,90,90,29.69,29.69,0,0,0,0.00
2012-4-21,77.0,69.5,55.4,59.2,56.6,52.5,90,65,48,29.69,29.45,8,4,0,0.08
2012-4-22,44.6,44.6,44.6,44.1,44.1,44.1,98,98,98,29.39,29.22,9,7,0,1.35
2012-4-23,50.0,46.0,41.0,47.7,42.2,37.1,98,87,81,29.25,29.06,5,2,0,0.58
2012-4-24,60.8,48.4,37.4,38.0,32.5,24.5,91,59,28,29.56,29.24,7,2,0,0.00
2012-4-25,60.8,49.3,41.0,36.0,33.0,29.9,78,55,33,29.76,29.57,6,1,0,0.00
2012-4-26,60.8,50.6,41.0,55.8,45.4,30.7,98,83,54,29.78,29.44,3,0,0,0.00
2012-4-27,55.4,49.0,42.8,54.8,37.2,27.3,98,65,43,29.89,29.44,10,4,0,0.00
2012-4-28,59.0,53.1,46.4,32.1,29.1,25.2,50,40,29,30.10,29.96,4,2,0,0.00
2012-4-30,64.4,63.5,62.6,26.8,26.0,25.3,24,24,24,30.10,30.08,3,2,0,0.00
2012-6-23,82.4,81.0,80.6,57.9,57.0,55.4,46,44,41,29.77,29.74,7,2,0,0.00
2012-6-24,73.4,73.4,73.4,64.2,63.9,63.4,73,72,71,29.78,29.77,2,1,0,0.00
2012-6-25,75.2,68.6,66.2,65.9,56.7,50.0,86,66,56,29.60,29.52,4,2,0,0.11
2012-6-26,71.6,64.3,55.4,54.5,52.0,46.5,78,65,49,29.61,29.55,7,4,0,0.00
2012-7-4,91.4,91.4,91.4,70.7,70.7,70.7,51,51,51,29.64,29.64,3,3,0,0.00
2012-7-5,91.4,83.5,77.0,72.1,66.2,59.6,85,58,40,29.72,29.60,5,2,0,0.00
2012-7-6,87.8,84.7,82.4,58.3,56.0,53.4,44,38,31,29.80,29.79,3,2,0,0.00
2012-7-7,78.8,78.8,78.8,67.3,67.3,67.3,68,68,68,29.70,29.70,0,0,0,0.00
2012-7-8,75.2,74.6,73.4,64.7,63.2,61.8,70,68,66,29.76,29.74,0,0,0,0.00
2012-7-9,77.0,76.1,75.2,62.0,61.2,60.3,60,60,60,29.84,29.83,3,1,0,0.00
2012-10-29,55.4,18.5,55.4,54.8,-48.3,-99.9,98,33,98,29.12,28.85,12,10,0,0.32
2012-11-7,37.4,37.4,37.4,36.9,36.9,36.9,98,98,98,29.67,29.67,6,6,0,0.00
2012-11-12,59.0,59.0,59.0,58.4,58.4,58.4,98,98,98,30.04,30.04,0,0,0,0.00
2012-11-16,46.8,46.8,46.8,-48.9,-48.9,-48.9,1,1,1,30.17,30.17,0,0,0,0.00
2012-11-17,49.3,48.1,47.1,-47.4,-48.1,-48.7,1,1,1,30.45,30.44,4,3,0,0.00
2012-11-18,38.3,37.4,36.3,-54.2,-54.7,-55.4,1,1,1,30.44,30.43,0,0,0,0.00
2012-11-19,43.3,40.1,38.3,-51.1,-53.1,-54.2,1,1,1,30.31,30.09,1,0,0,0.00
2012-11-21,39.4,39.4,39.4,-53.5,-53.5,-53.5,1,1,1,30.07,30.07,0,0,0,0.00
2012-11-22,44.8,42.9,41.7,-50.1,-51.3,-52.1,1,1,1,30.01,29.98,2,1,0,0.00
2012-11-23,49.3,49.3,49.3,-47.4,-47.4,-47.4,1,1,1,29.80,29.80,3,3,0,0.00
2012-11-24,43.5,39.4,35.2,-28.1,-51.4,-56.1,5,1,1,29.65,29.55,7,4,0,0.00
2012-11-25,39.7,35.7,30.7,-53.3,-55.8,-58.9,1,1,1,29.80,29.70,9,3,0,0.00
2012-11-26,47.5,40.9,31.5,-48.5,-52.6,-58.4,1,1,1,30.07,29.81,4,2,0,0.00
2012-11-27,40.8,38.2,34.5,40.3,37.1,18.7,98,96,52,30.11,30.03,3,1,0,0.00
2012-11-28,37.0,37.0,37.0,-55.0,-55.0,-55.0,1,1,1,30.06,30.06,4,4,0,0.00
2012-11-29,36.5,36.5,36.5,-55.3,-55.3,-55.3,1,1,1,30.17,30.14,1,0,0,0.15
2012-11-30,43.0,38.8,32.9,24.5,-47.5,-57.5,49,5,1,30.27,30.16,3,1,0,0.01
2012-12-1,43.9,39.2,35.4,43.4,-29.9,-56.0,98,20,1,30.37,30.26,4,2,0,0.00
2012-12-2,53.6,48.6,44.8,53.0,42.5,-48.9,98,92,1,30.26,29.96,4,1,0,0.09
2012-12-3,51.1,50.8,50.5,50.6,50.3,50.0,98,98,98,30.05,30.05,1,1,0,0.00
2012-12-4,58.3,55.3,52.3,56.1,30.5,-42.3,98,72,1,30.12,29.83,2,0,0,0.00
2012-12-5,50.7,50.7,50.7,46.7,16.7,1.7,86,37,13,29.89,29.88,5,4,0,0.00
2012-12-7,49.6,47.0,45.3,49.1,46.5,44.8,98,98,98,29.93,29.85,0,0,0,0.31
2012-12-8,60.4,56.1,49.8,59.8,55.5,49.3,98,98,98,29.85,29.71,3,1,0,0.32
2012-12-9,60.4,50.3,41.4,59.8,32.4,-51.4,98,77,1,30.09,29.84,5,2,0,0.32
2012-12-10,65.8,56.4,52.9,65.2,55.8,52.4,98,98,98,29.84,29.54,2,1,0,0.06
2012-12-11,46.6,43.0,36.5,42.8,-8.6,-53.2,98,36,1,30.03,29.54,7,3,0,0.01
2012-12-12,42.1,35.6,31.3,35.8,-49.2,-58.5,98,7,1,30.27,30.03,4,1,0,0.00
2012-12-13,45.3,38.3,29.7,-34.4,-53.6,-59.5,4,1,1,30.31,30.16,4,1,0,0.00
2012-12-14,41.2,33.9,31.1,32.9,-8.0,-58.6,98,50,1,30.16,30.05,4,1,0,0.00
2012-12-19,45.5,45.5,45.5,-49.7,-49.7,-49.7,1,1,1,29.65,29.65,10,10,0,0.00
2012-12-21,57.7,57.7,57.7,57.1,57.1,57.1,98,98,98,29.27,29.21,6,6,0,0.00
2012-12-22,37.4,36.1,34.5,34.0,-47.3,-56.3,98,6,1,29.67,29.25,11,7,0,0.00
2012-12-27,41.5,39.4,35.8,41.0,36.2,5.9,98,92,28,29.38,29.13,8,6,0,0.25
2012-12-28,37.8,35.4,31.5,34.8,2.7,-58.4,98,46,1,29.92,29.86,7,4,0,0.00
2012-12-29,37.4,33.0,29.7,36.9,25.6,-59.5,98,89,1,29.45,29.35,0,0,0,0.00
2012-12-30,33.4,30.3,28.6,29.0,-40.8,-60.2,98,17,1,29.99,29.45,10,6,0,0.00
2012-12-31,36.3,35.1,32.5,32.0,-39.7,-56.7,98,13,1,29.96,29.73,5,3,0,0.00
2013-1-1,39.2,38.0,36.5,-53.6,-54.3,-55.3,1,1,1,29.74,29.70,8,4,0,0.00